Home > Time Zones > World Clock > Weather > China > Wuhan > Past weeks

Flag for China Weather past 2 weeks in Wuhan, Hubei, China

Now
37 °F

Fog.


Feels Like: 37 °F
Forecast: 40 / 57 °F
Wind: 1 mph from North

Location: Wuhan Airport

Current Time: Mar 1, 2015 at 9:13:49 AM

Latest Report: Mar 1, 2015 at 8:00 AM


Visibility: 2 mi

Pressure: 30.42 "Hg

Humidity: 93%

Dew point: 36 °F

Location of WuhanLocation

Historic Weather in Wuhan — Graph

°F

Wuhan temperature yesterday

Maximum temperature yesterday: 43 °F (at 3:00 PM)
Minimum temperature yesterday: 36 °F (at 8:00 AM)
Average temperature yesterday: 39 °F

Past Weeks' High & Low Weather Summary

 TemperatureHumidityPressure
High68 °F (Feb 17, 3:00 PM)100% (Feb 15, 6:00 AM)30.45 "Hg (Feb 15, 6:00 AM)
Low36 °F (Feb 28, 8:00 AM)30% (Feb 17, 4:00 PM)29.89 "Hg (Feb 15, 2:00 AM)
Average48 °F83%30.10 "Hg
* Reported Feb 14 8:00 AM — Mar 1 8:00 AM, Wuhan, Weather by CustomWeather, © 2015

Note: Actual official high and low records may vary slightly from our data, if they occured in-between our weather recording intervals... More about our weather records

Advertising

Wuhan weather history for previous 24 hours

 ConditionsComfort  
Time TempWeatherWind HumidityBarometerVisibility
8:00 AM
Sun, Mar 1
37 °FFog.1 mph93%30.42 "Hg2 mi
7:00 AM36 °FFog.No wind93%30.39 "Hg2 mi
6:00 AM36 °FClear.No wind93%30.39 "Hg4 mi
5:00 AM37 °FClear.3 mph87%30.42 "Hg4 mi
4:00 AM37 °FClear.1 mph87%30.39 "Hg4 mi
3:00 AM39 °FClear.3 mph81%30.42 "Hg5 mi
2:00 AM39 °FClear.1 mph87%30.45 "Hg10 mi
1:00 AM39 °FClear.3 mph87%30.45 "Hg10 mi
12:00 AM39 °FClear.3 mph81%30.45 "Hg10 mi
11:00 PM
Sat, Feb 28
39 °FPassing clouds.3 mph81%30.45 "HgN/A
10:00 PM39 °FClear.1 mph81%30.45 "Hg10 mi
9:00 PM39 °FClear.No wind81%30.42 "Hg10 mi
8:00 PM39 °FClear.1 mph81%30.42 "Hg10 mi
7:00 PM39 °FPassing clouds.3 mph75%30.39 "HgN/A
6:00 PM39 °FScattered clouds.6 mph75%30.36 "HgN/A
5:00 PM41 °FScattered clouds.8 mph70%30.33 "HgN/A
4:00 PM41 °FPassing clouds.8 mph76%30.33 "HgN/A
3:00 PM43 °FPassing clouds.10 mph66%30.30 "HgN/A
2:00 PM41 °FScattered clouds.10 mph76%30.33 "HgN/A
1:00 PM41 °FScattered clouds.10 mph76%30.33 "HgN/A
12:00 PM39 °FScattered clouds.10 mph75%30.36 "HgN/A
11:00 AM39 °FScattered clouds.10 mph75%30.33 "HgN/A
10:00 AM37 °FScattered clouds.8 mph87%30.33 "HgN/A
9:00 AM36 °FLight rain. Fog.8 mph93%30.30 "Hg3 mi
Weather by CustomWeather, © 2015

See weather overviewHow to use our weather pages